• En España
  • Lista de países
  • Para 7 días
  • Temperatura del agua
  • Mapa Satelital
  • El tiempo en el mapa
  • Informadores
  • user-avatar
    Iniciar sesión

    Tiempo cada hora Troelga

    Hoy, 15 Agosto, Miércoles

    Tiempo Temperatura Precipitaciones Viento Presión Humedad
    00:00 +14°C° 0 mm 2 mps 744 mmHg 92%
    01:00 +13°C° 0 mm 2 mps 744 mmHg 94%
    02:00 +13°C° 0 mm 2 mps 744 mmHg 94%
    03:00 +12°C° 0 mm 2 mps 744 mmHg 95%
    04:00 +12°C° 0 mm 2 mps 744 mmHg 96%
    05:00 +13°C° 0 mm 2 mps 745 mmHg 93%
    06:00 +13°C° 0 mm 2 mps 745 mmHg 90%
    07:00 +13°C° 0 mm 3 mps 745 mmHg 87%
    08:00 +16°C° 0 mm 3 mps 745 mmHg 79%
    09:00 +18°C° 0 mm 3 mps 745 mmHg 71%
    10:00 +19°C° 0 mm 4 mps 745 mmHg 63%
    11:00 +20°C° 0 mm 4 mps 745 mmHg 60%
    12:00 +21°C° 0 mm 4 mps 745 mmHg 56%
    13:00 +22°C° 0 mm 4 mps 745 mmHg 53%
    14:00 +22°C° 0 mm 4 mps 746 mmHg 53%
    15:00 +22°C° 0 mm 4 mps 746 mmHg 53%
    16:00 +22°C° 0 mm 4 mps 746 mmHg 53%
    17:00 +21°C° 0 mm 3 mps 746 mmHg 60%
    18:00 +20°C° 0 mm 3 mps 746 mmHg 66%
    19:00 +19°C° 0 mm 2 mps 746 mmHg 73%
    20:00 +17°C° 0 mm 2 mps 747 mmHg 76%
    21:00 +16°C° 0 mm 2 mps 747 mmHg 80%
    22:00 +15°C° 0 mm 2 mps 747 mmHg 84%
    23:00 +14°C° 0 mm 2 mps 747 mmHg 86%

    Mañana, 16 Agosto, Jueves

    Tiempo Temperatura Precipitaciones Viento Presión Humedad
    00:00 +13°C° 0 mm 2 mps 747 mmHg 88%
    01:00 +13°C° 0 mm 2 mps 747 mmHg 90%
    02:00 +13°C° 0 mm 2 mps 747 mmHg 91%
    03:00 +12°C° 0 mm 2 mps 747 mmHg 92%
    04:00 +12°C° 0 mm 2 mps 747 mmHg 93%
    05:00 +13°C° 0 mm 2 mps 747 mmHg 90%
    06:00 +14°C° 0 mm 2 mps 747 mmHg 87%
    07:00 +14°C° 0 mm 3 mps 746 mmHg 83%
    08:00 +16°C° 0,2 mm 3 mps 746 mmHg 80%
    09:00 +17°C° 0,2 mm 4 mps 746 mmHg 78%
    10:00 +17°C° 0,2 mm 5 mps 745 mmHg 75%
    11:00 +17°C° 1 mm 5 mps 745 mmHg 79%
    12:00 +17°C° 1 mm 5 mps 744 mmHg 84%
    13:00 +17°C° 1 mm 5 mps 744 mmHg 88%
    14:00 +19°C° 0,4 mm 5 mps 744 mmHg 88%
    15:00 +19°C° 0,4 mm 4 mps 743 mmHg 88%
    16:00 +20°C° 0,4 mm 4 mps 743 mmHg 88%
    17:00 +20°C° 0,8 mm 4 mps 743 mmHg 90%
    18:00 +19°C° 0,8 mm 4 mps 743 mmHg 92%
    19:00 +19°C° 0,8 mm 3 mps 743 mmHg 93%
    20:00 +18°C° 0,1 mm 3 mps 743 mmHg 95%
    21:00 +17°C° 0,1 mm 3 mps 743 mmHg 96%
    22:00 +16°C° 0,1 mm 3 mps 743 mmHg 97%
    23:00 +16°C° 0 mm 3 mps 744 mmHg 97%

    Pasado mañana, 17 Agosto, Viernes

    Tiempo Temperatura Precipitaciones Viento Presión Humedad
    00:00 +14°C° 0 mm 3 mps 744 mmHg 97%
    01:00 +13°C° 0 mm 3 mps 744 mmHg 97%
    02:00 +13°C° 0 mm 3 mps 744 mmHg 97%
    03:00 +12°C° 0 mm 3 mps 745 mmHg 97%
    04:00 +12°C° 0 mm 3 mps 745 mmHg 97%
    05:00 +12°C° 0 mm 3 mps 745 mmHg 96%
    06:00 +12°C° 0 mm 3 mps 745 mmHg 95%
    07:00 +12°C° 0 mm 3 mps 746 mmHg 95%
    08:00 +14°C° 0 mm 3 mps 746 mmHg 89%
    09:00 +16°C° 0 mm 3 mps 746 mmHg 83%
    10:00 +18°C° 0 mm 3 mps 747 mmHg 76%
    11:00 +19°C° 0 mm 3 mps 747 mmHg 70%
    12:00 +20°C° 0 mm 3 mps 746 mmHg 64%
    13:00 +21°C° 0 mm 4 mps 746 mmHg 58%
    14:00 +20°C° 0,1 mm 4 mps 746 mmHg 59%
    15:00 +20°C° 0,1 mm 4 mps 747 mmHg 59%
    16:00 +20°C° 0,1 mm 4 mps 747 mmHg 60%
    17:00 +19°C° 0,1 mm 3 mps 747 mmHg 65%
    18:00 +18°C° 0,1 mm 3 mps 747 mmHg 71%
    19:00 +16°C° 0,1 mm 2 mps 747 mmHg 76%
    20:00 +14°C° 0 mm 3 mps 747 mmHg 80%
    21:00 +13°C° 0 mm 3 mps 748 mmHg 83%
    22:00 +11°C° 0 mm 3 mps 748 mmHg 86%
    23:00 +11°C° 0 mm 3 mps 748 mmHg 88%

    18 Agosto, Sábado

    Tiempo Temperatura Precipitaciones Viento Presión Humedad
    00:00 +10°C° 0 mm 3 mps 748 mmHg 90%
    01:00 +10°C° 0 mm 3 mps 749 mmHg 92%
    02:00 +9°C° 0 mm 3 mps 749 mmHg 92%
    03:00 +9°C° 0 mm 3 mps 749 mmHg 93%
    04:00 +8°C° 0 mm 3 mps 749 mmHg 93%
    05:00 +8°C° 0 mm 3 mps 750 mmHg 90%
    06:00 +8°C° 0 mm 4 mps 750 mmHg 87%
    07:00 +8°C° 0 mm 4 mps 750 mmHg 83%
    08:00 +11°C° 0 mm 4 mps 750 mmHg 76%
    09:00 +12°C° 0 mm 4 mps 750 mmHg 69%
    10:00 +14°C° 0 mm 5 mps 750 mmHg 62%
    11:00 +15°C° 0 mm 5 mps 750 mmHg 59%
    12:00 +15°C° 0 mm 5 mps 750 mmHg 56%
    13:00 +16°C° 0 mm 5 mps 750 mmHg 54%
    14:00 +16°C° 0 mm 5 mps 750 mmHg 54%
    15:00 +16°C° 0 mm 5 mps 750 mmHg 55%
    16:00 +16°C° 0 mm 5 mps 750 mmHg 56%
    17:00 +15°C° 0 mm 4 mps 751 mmHg 61%
    18:00 +14°C° 0 mm 3 mps 751 mmHg 67%
    19:00 +13°C° 0 mm 3 mps 751 mmHg 72%
    20:00 +12°C° 0 mm 3 mps 751 mmHg 77%
    21:00 +12°C° 0 mm 2 mps 751 mmHg 82%
    22:00 +9°C° 0 mm 2 mps 752 mmHg 86%
    23:00 +9°C° 0 mm 2 mps 752 mmHg 88%

    19 Agosto, Domingo

    Tiempo Temperatura Precipitaciones Viento Presión Humedad
    00:00 +9°C° 0 mm 2 mps 752 mmHg 90%
    01:00 +8°C° 0 mm 2 mps 752 mmHg 92%
    02:00 +8°C° 0 mm 2 mps 752 mmHg 93%
    03:00 +7°C° 0 mm 2 mps 752 mmHg 94%
    04:00 +7°C° 0 mm 2 mps 753 mmHg 94%
    05:00 +8°C° 0 mm 2 mps 753 mmHg 90%
    06:00 +9°C° 0 mm 2 mps 753 mmHg 86%
    07:00 +9°C° 0 mm 2 mps 753 mmHg 82%
    08:00 +12°C° 0 mm 2 mps 753 mmHg 74%
    09:00 +14°C° 0 mm 2 mps 753 mmHg 66%
    10:00 +16°C° 0 mm 2 mps 753 mmHg 58%
    11:00 +17°C° 0 mm 2 mps 753 mmHg 55%
    12:00 +18°C° 0 mm 2 mps 753 mmHg 51%
    13:00 +19°C° 0 mm 2 mps 752 mmHg 48%
    14:00 +19°C° 0 mm 2 mps 752 mmHg 48%
    15:00 +19°C° 0 mm 2 mps 752 mmHg 48%
    16:00 +19°C° 0 mm 2 mps 752 mmHg 48%
    17:00 +18°C° 0 mm 2 mps 752 mmHg 55%
    18:00 +16°C° 0 mm 2 mps 752 mmHg 62%
    19:00 +15°C° 0 mm 1 mps 752 mmHg 69%
    20:00 +14°C° 0 mm 1 mps 752 mmHg 72%
    21:00 +12°C° 0 mm 1 mps 752 mmHg 75%
    22:00 +11°C° 0 mm 1 mps 752 mmHg 77%
    23:00 +11°C° 0 mm 1 mps 752 mmHg 79%

    20 Agosto, Lunes

    Tiempo Temperatura Precipitaciones Viento Presión Humedad
    00:00 +10°C° 0 mm 1 mps 752 mmHg 80%
    01:00 +10°C° 0 mm 1 mps 752 mmHg 81%
    02:00 +9°C° 0 mm 1 mps 752 mmHg 82%
    03:00 +9°C° 0 mm 1 mps 752 mmHg 83%
    04:00 +9°C° 0 mm 1 mps 752 mmHg 84%
    05:00 +10°C° 0 mm 1 mps 752 mmHg 81%
    06:00 +11°C° 0 mm 1 mps 752 mmHg 77%
    07:00 +11°C° 0 mm 0 mps 752 mmHg 74%
    08:00 +14°C° 0 mm 1 mps 752 mmHg 68%
    09:00 +16°C° 0 mm 1 mps 751 mmHg 62%
    10:00 +19°C° 0 mm 1 mps 751 mmHg 56%
    11:00 +20°C° 0 mm 1 mps 751 mmHg 53%
    12:00 +21°C° 0 mm 1 mps 751 mmHg 50%
    13:00 +23°C° 0 mm 1 mps 750 mmHg 47%
    14:00 +23°C° 0 mm 1 mps 750 mmHg 46%
    15:00 +23°C° 0 mm 1 mps 750 mmHg 46%
    16:00 +23°C° 0 mm 1 mps 749 mmHg 45%
    17:00 +21°C° 0 mm 1 mps 749 mmHg 52%
    18:00 +20°C° 0 mm 1 mps 749 mmHg 59%
    19:00 +18°C° 0 mm 1 mps 749 mmHg 66%
    20:00 +16°C° 0 mm 1 mps 749 mmHg 69%
    21:00 +14°C° 0 mm 1 mps 749 mmHg 72%
    22:00 +13°C° 0 mm 1 mps 749 mmHg 75%
    23:00 +13°C° 0 mm 1 mps 749 mmHg 77%
    Mostrar más